This is the latest recevied weather packets stored in our database for station/object XW7RMR. If no packets are shown the sender has not sent any weather packets the latest 10 day(s).
| Time | Temp. | Humidity | Pressure | Rain* | Wind** | Luminosity | Snow |
|---|---|---|---|---|---|---|---|
| 1777751744 | 17.78° C | 64% | 1013.7 hPa | 0 mm | - | 535 W/m² | - |
| 1777751439 | 16.67° C | 67% | 1013.8 hPa | 0 mm | - | 833 W/m² | - |
| 1777751136 | 16.67° C | 70% | 1013.8 hPa | 0 mm | - | 860 W/m² | - |
| 1777750832 | 16.67° C | 70% | 1013.8 hPa | 0 mm | - | 870 W/m² | - |
| 1777750530 | 16.11° C | 72% | 1013.8 hPa | 0 mm | - | 816 W/m² | - |
| 1777750226 | 15° C | 73% | 1014.1 hPa | 0 mm | - | 800 W/m² | - |
| 1777749922 | 14.44° C | 76% | 1014.3 hPa | 0 mm | - | 849 W/m² | - |
| 1777749620 | 15° C | 76% | 1014.2 hPa | 0 mm | - | 851 W/m² | - |
| 1777749316 | 14.44° C | 75% | 1014.2 hPa | 0 mm | - | 818 W/m² | - |
| 1777749015 | 13.89° C | 76% | 1014.4 hPa | 0 mm | - | 800 W/m² | - |
| 1777748712 | 13.89° C | 78% | 1014.5 hPa | 0 mm | - | 796 W/m² | - |
| 1777748408 | 13.89° C | 79% | 1014.4 hPa | 0 mm | - | 762 W/m² | - |
| 1777748103 | 13.33° C | 78% | 1014.4 hPa | 0 mm | - | 762 W/m² | - |
| 1777747800 | 13.33° C | 79% | 1014.5 hPa | 0 mm | - | 584 W/m² | - |
| 1777747495 | 12.78° C | 81% | 1014.4 hPa | 0 mm | - | 620 W/m² | - |
| 1777747193 | 12.22° C | 82% | 1014.6 hPa | 0 mm | - | 282 W/m² | - |
| 1777746889 | 12.78° C | 81% | 1014.5 hPa | 0 mm | - | 205 W/m² | - |
| 1777746584 | 12.78° C | 82% | 1014.4 hPa | 0 mm | - | 172 W/m² | - |
| 1777746280 | 12.78° C | 81% | 1014.3 hPa | 0 mm | - | 152 W/m² | - |
| 1777745976 | 12.78° C | 81% | 1014.7 hPa | 0 mm | - | 169 W/m² | - |
| 1777745674 | 12.78° C | 80% | 1014.4 hPa | 0 mm | - | 201 W/m² | - |
| 1777745373 | 12.22° C | 79% | 1014.8 hPa | 0 mm | - | 204 W/m² | - |
| 1777745070 | 12.78° C | 78% | 1014.8 hPa | 0 mm | - | 319 W/m² | - |
| 1777744766 | 12.78° C | 80% | 1014.7 hPa | 0 mm | - | 225 W/m² | - |
| 1777744460 | 12.78° C | 79% | 1014.6 hPa | 0 mm | - | 228 W/m² | - |
* Rain latest hour (hover to see other rain measurements)
** Current wind speed in m/s (hover to see current wind gust speed)